Hourly Data Report for August 31, 2021

LYNN LAKE
MANITOBA
Current Station Operator: NAVCAN

56°51'50.000" N
101°04'34.000" W
356.60 m
5061645
71078
YYL

Download Data

Hourly Data (August 2021)
Hourly Data Report for August 31, 2021
TIME
LST
Temp Definition
°C
Dew Point Definition
°C
Rel Hum Definition
%
Precip. Amount Definition
mm

Wind Dir Definition
10's deg

Wind Spd Definition
km/h
Visibility Definition
km
Stn Press Definition
kPa
Hmdx Definition


Wind Chill Definition


Weather Definition


00:00 13.5 12.4 93 0.0 13 5 16.1 97.05     LegendNANA
01:00 13.1 12.3 95 0.0 15 8 16.1 97.05     LegendNANA
02:00 11.2 10.9 98 0.0 9 8 16.1 97.05     LegendNANA
03:00 12.3 11.8 97 0.0 14 8 12.9 97.06     LegendNANA
04:00 11.2 11.1 99 0.0 17 4 6.4 97.07     Fog
05:00 10.6 10.5 99 0.0 13 5 4.8 97.09     Fog
06:00 10.8 10.7 99 0.0 12 5 3.6 97.09     Fog
07:00 10.8 10.8 100 0.0 12 5 4.0 97.12     Fog
08:00 13.2 12.6 96 0.0 13 8 2.8 97.15     Fog
09:00 16.5 14.1 86 0.0 15 5 3.2 97.15     Haze
10:00 20.0 14.8 72 0.0 13 9 4.0 97.13     Haze
11:00 23.0 13.6 55 0.0 15 15 16.1 97.13 26   LegendNANA
12:00 23.1 12.1 50 0.0 15 21 12.9 97.10 25   LegendNANA
13:00 23.8 11.0 44 0.0 17 22 16.1 97.09 26   LegendNANA
14:00 24.0 11.0 43 0.0 16 26 16.1 97.07 26   LegendNANA
15:00 24.0 11.1 44 0.0 16 24 9.7 97.05 26   Haze
16:00 23.3 11.1 46 0.0 17 15 16.1 97.05 25   LegendNANA
17:00 23.4 11.8 48 0.0 14 15 16.1 97.00 26   LegendNANA
18:00 23.3 11.8 48 0.0 12 15 16.1 96.95 25   LegendNANA
19:00 21.5 12.5 56 0.0 13 13 16.1 96.95     LegendNANA
20:00 19.4 12.3 63 0.0 12 13 16.1 96.95     LegendNANA
21:00 17.6 12.6 72 0.0 13 9 16.1 97.01     LegendNANA
22:00 17.2 12.4 73 0.0 13 13 16.1 97.00     LegendNANA
23:00 16.6 12.3 76 0.0 14 13 16.1 97.03     LegendNANA

Notes on Data Quality.

Legend

  • E = Estimated
  • M = Missing
  • NA = Not Available*
  • [empty] = Indicates an unobserved value
Date modified: